Weather in Prechistoe

Russia / Yaroslavl Oblast     58°25′28″N   40°19′29″E
temp.,
°C
wind,
m/s
gust,
m/s
humid.,
%
clouds,
%
prec.,
mm/h
press.,
hPa
HPBL,
m
1 july, fri
fri100:00+10ne39730 0.0 1019174
03:00+7ne24790 0.0 102173
06:00+11ne37660 0.0 1021239
09:00+15ene46420 0.0 10221206
12:00+19ne46344 0.0 10221547
15:00+21ne45335 0.0 10221832
18:00+20ne24445 0.0 10211628
21:00+14n116957 0.0 102211
2 july, sat
sat200:00+11nw227413 0.0 102311
03:00+10nw2374100 0.0 102348
06:00+14wnw286737 0.0 1022207
09:00+17wnw386122 0.0 1022416
12:00+21nw374893 0.0 1020580
15:00+26nnw484226 0.0 10172163
18:00+26nnw47505 0.0 10161404
21:00+19nnw367961 0.0 1016105
3 july, sun
sun300:00+16nne26847 0.0 101798
03:00+14nne238714 0.0 101757
06:00+17nne257842 0.0 1017151
09:00+22ne34550 0.0 1017859
12:00+25ne34440 0.0 10171776
15:00+26nne33390 0.0 10162153
18:00+25nne24482 0.0 1016808
21:00+18ene11720 0.0 101711
4 july, mon
mon400:00+15ese11734 0.0 101711
03:00+14ssw11760 0.0 101811
06:00+18w11700 0.0 101754
09:00+24w12520 0.0 1017642
12:00+27wnw234215 0.0 10172228
15:00+29wnw233622 0.0 10152472
18:00+24nw366154 0.0 1015274
21:00+20wnw117534 0.0 101613
5 july, tue
tue500:00+20w2367100 0.0 101652
03:00+17sw117298 0.0 101611
06:00+19sw1379100 0.0 1016100
09:00+23sw3557100 0.0 1015472
12:00+26ssw355366 0.1 10141167
15:00+24sw2570100 0.2 1013142
18:00+23wsw368490 0.8 1012169
21:00+18w31097100 3.9 1012285